www.pogodaiklimat.ru

Погода и климат >> Архив погоды >> Россия >> Краснодарский край >> Тамань


ПОГОДА в Тамани

  • Прогноз погоды в Тамани
  • Монитор погоды в Тамани

АРХИВ ПОГОДЫ в Тамани

Время (UTC), дата Ветер
(напр.,м/с)
 
Видим.   Явления Облачность Т
(С)
Тd
(С)
f
(%)
Тe
(С)
Тes
(С)
Комфортность P
(гПа)
Po
(гПа)
Тmin
(С)
Tmax
(С)
R
(мм)
R24
(мм)
S
(см)
21 14.04 штиль 0 10 км 8/4 1000 м
[Sc Ac trans]
+12.3 +11.1 92 +12 +12 1007.9 1006.0
00 15.04 ЮЗ 3 4000 м слаб. дождь 10/10 600 м
[St]
+11.0 +10.2 95 +9 +9 1007.5 1005.6
03 15.04 Ю 3 4000 м дождь 10/10 600 м
[St]
+10.7 +9.8 94 +9 +9 1008.1 1006.1 +10.5 4
06 15.04 ЮЗ 4 20 км {дождь} 10/8 1000 м
[Sc Ac trans]
+11.7 +9.6 87 +9 +10 1009.2 1007.3
09 15.04 Ю 4
{11}
20 км 8/6 1000 м
[Cu med, cong Ac trans]
+12.8 +9.9 83 +11 +14 1010.4 1008.4
12 15.04 Ю 4
{11}
20 км 5/5 1000 м
[Cu med, cong]
+13.7 +9.7 77 +12 +16 1010.9 1008.9
15 15.04 Ю 4 20 км 10/10 600 м
[Cb calv]
+12.2 +9.6 84 +10 +10 1011.0 1009.1 +14.1 0.3
18 15.04 ЮЗ 3 10 км 10/8 600 м
[Cu med, cong Ac trans]
+10.6 +8.2 85 +9 +9 1012.4 1010.5
21 15.04 ЮЗ 1 10 км 10/10 600 м
[Sc]
+9.9 +6.8 81 +9 +9 1013.1 1011.2
00 16.04 ЮЗ 1 10 км 10/10 600 м
[Sc]
+9.4 +5.8 78 +9 +9 1012.9 1010.9
03 16.04 ЮЗ 1 10 км 10/10 600 м
[Sc]
+9.0 +6.1 82 +8 +8 1013.3 1011.4 +9.0
06 16.04 штиль 0 20 км 10/10 600 м
[Sc]
+8.9 +6.5 85 +8 +8 1014.7 1012.8 +8.5
09 16.04 штиль 0 20 км 10/10 600 м
[Sc]
+9.8 +6.5 80 +9 +9 1014.9 1013.0
12 16.04 штиль 0 20 км 5/5 600 м
[Cu med, cong]
+12.4 +6.8 69 +12 +19 1014.4 1012.5
15 16.04 штиль 0 20 км 10/10 600 м
[Sc]
+10.8 +7.2 78 +10 +10 1014.8 1012.9
18 16.04 штиль 0 10 км 10/10 600 м
[Sc]
+10.1 +6.4 78 +9 +9 1015.7 1013.8
21 16.04 СВ 1 10 км 10/10 600 м
[Sc]
+10.0 +6.1 77 +10 +10 1015.0 1013.1
00 17.04 штиль 0 10 км 10/10 1000 м
[Sc]
+9.7 +5.8 77 +9 +9 1014.3 1012.3
03 17.04 С 2 20 км 5/3 1000 м
[Sc Ci fib]
+9.5 +6.5 82 +8 +8 1013.3 1011.4 +9.2
06 17.04 СЗ 2 20 км 10/4 1000 м
[Sc Ac trans Cs]
+11.6 +6.9 73 +11 +13 1013.4 1011.5
09 17.04 СЗ 3 4000 м слаб. морось 10/10 300 м
[St]
+10.9 +8.6 86 +9 +9 1013.6 1011.7
12 17.04 С 2 20 км {морось} 10/10 600 м
[Sc]
+12.3 +9.5 83 +11 +11 1014.1 1012.2
15 17.04 СВ 7-12
{13}
10 км слаб. морось 10/10 600 м
[St]
+9.7 +8.4 92 +6 +6 1015.8 1013.9 +12.7
18 17.04 СВ 7-12
{13}
10 км {морось} 10/10 600 м
[Sc]
+8.4 +5.5 82 +4 +4 1018.3 1016.3
21 17.04 СВ 9-13
{14}
10 км 10/10 600 м
[Sc]
+7.5 +3.8 77 +2 +2 1019.1 1017.1
00 18.04 СВ 7-12
{14}
10 км 10/10 600 м
[Sc]
+7.0 +3.6 79 +2 +2 1019.2 1017.2
03 18.04 СВ 7-12
{13}
20 км 10/10 600 м
[Sc]
+5.9 +2.8 80 +1 +1 1019.4 1017.5 +5.9 0.3
06 18.04 СВ 7-12
{13}
20 км 10/10 600 м
[Sc]
+5.5 +2.3 80 0 0 1020.4 1018.4 +5.2
09 18.04 СВ 8-12
{17}
20 км 10/10 600 м
[Sc]
+5.8 +2.3 78 0 0 1021.0 1019.0
12 18.04 В 7-12
{15}
20 км 10/10 600 м
[Sc]
+6.6 +2.5 75 +2 +2 1020.9 1018.9
15 18.04 В 5
{13}
20 км 10/3 600 м
[Cu med, cong As trans]
+6.6 +3.1 78 +3 +3 1020.6 1018.6 +6.9
18 18.04 В 5
{11}
10 км дождь 10/0 600 м
[]
+6.4 +3.9 84 +2 +2 1021.4 1019.5
21 18.04 В 4
{10}
10 км в посл. час дождь 10/0 600 м
[As op]
+5.9 +1.9 75 +2 +2 1020.8 1018.8
00 19.04 В 4 10 км {дождь} 10/10 600 м
[Sc]
+5.4 +1.5 76 +2 +2 1019.4 1017.4
03 19.04 В 5
{10}
10 км 10/10 600 м
[Sc]
+5.4 +0.3 70 +1 +1 1018.5 1016.5 +5.1 4
06 19.04 СВ 8-13
{13}
20 км слаб. дождь 10/0 600 м
[As op]
+4.6 +1.9 83 -1 -1 1019.1 1017.1 +4.6
09 19.04 СВ 8-14
{15}
20 км дождь 10/0 600 м
[As op]
+4.7 +2.0 83 -1 -1 1019.1 1017.1
12 19.04 СВ 8-14
{16}
20 км слаб. дождь 10/0 600 м
[As op]
+4.6 +2.4 86 -1 -1 1019.2 1017.2
15 19.04 СВ 6-13
{15}
4000 м слаб. дождь 10/0 600 м
[As op]
+5.4 +2.8 83 0 +1 1019.2 1017.2 +5.6 8
18 19.04 СВ 8-14
{14}
10 км слаб. дождь 10/8 600 м
[Frnb As op]
+7.6 +2.0 68 +3 +3 1019.2 1017.2
21 19.04 В 6-10
{14}
10 км слаб. дождь 10/8 600 м
[St As op]
+6.9 +0.5 64 +3 +3 1018.7 1016.8
00 20.04 В 5
{11}
10 км {дождь} 10/10 600 м
[Sc]
+6.2 +1.3 71 +2 +2 1018.6 1016.6
03 20.04 В 5
{10}
20 км 8/8 600 м
[Sc]
+5.5 -0.1 67 +1 +1 1018.5 1016.5 +5.4 3
06 20.04 В 7-11
{12}
20 км 3/1 600 м
[Sc Ci sp]
+7.7 +1.0 63 +3 +5 1019.1 1017.1 +5.4
09 20.04 В 6-12
{13}
20 км 8/8 600 м
[Sc]
+10.5 +0.8 51 +8 +9 1019.6 1017.6
12 20.04 В 4
{13}
20 км 10/10 600 м
[Sc]
+11.8 +0.4 45 +10 +10 1020.1 1018.1
15 20.04 В 3
{11}
20 км 6/6 1000 м
[Sc]
+11.9 +1.6 49 +11 +11 1020.2 1018.2 +12.0
18 20.04 В 3 10 км ясно +7.3 +0.6 62 +5 +5 1021.3 1019.3
21 20.04 В 3 10 км 1/1 1000 м
[Sc]
+6.5 +1.0 68 +4 +4 1021.1 1019.1
00 21.04 СВ 5 10 км 3/0
[Ci fib]
+7.9 +2.5 69 +4 +4 1020.2 1018.2
03 21.04 С 2 20 км 3/0
[Ci fib]
+8.0 +2.7 69 +6 +6 1019.5 1017.5 +6.3
06 21.04 СВ 7-11
{13}
20 км 3/0
[Ci fib]
+10.1 +1.6 56 +7 +9 1019.6 1017.6
09 21.04 СВ 6-12
{13}
20 км 4/0
[Ac trans Ci fib]
+11.4 +2.7 55 +9 +14 1019.7 1017.7
12 21.04 СВ 5-10
{12}
20 км 4/1 1000 м
[Sc Ci fib]
+12.9 +0.2 42 +11 +16 1019.1 1017.2
15 21.04 С 2
{11}
20 км 9/4 1000 м
[Sc Ac trans Ci fib]
+12.1 +4.8 61 +11 +12 1018.7 1016.7 +13.0
18 21.04 штиль 0 10 км 8/4 1000 м
[Sc Ac trans]
+9.0 +1.9 61 +9 +9 1020.0 1018.0

 

Местоположение метеостанции Тамань (Краснодарский край, Россия): широта 45.22 долгота 36.72 высота над уровнем моря 17 м.

В архиве по умолчанию представлена погода в Тамани за последнюю неделю. Архивные данные за месяц целиком и за предыдущие месяцы, начиная с января 2011 года, Вы можете получить, выбрав интересующий диапазон дат из раскрывающегося списка и нажав кнопку "Ввод!".


*Определитесь, кто Вы:
робот инопланетянин человек

Внимание! Время в таблицах - всемирное. Для получения местного времени необходимо прибавить поправку, которая равна 3 ч.

Смотрите также архив погоды в соседних городах и на ближайших метеорологических станциях:

Погода в Опасном (Крым, Россия) (18 км)
Погода в Керчи (Крым, Россия) (28 км)
Погода в Темрюке (Краснодарский край, Россия) (53 км)
Погода в Анапе (Краснодарский край, Россия) (58 км)
Погода в Мысовом (Крым, Россия) (75 км)
Погода в Новороссийске (Краснодарский край, Россия) (105 км)
Погода в Владиславовке (Крым, Россия) (105 км)
Погода в Крымске (Краснодарский край, Россия) (106 км)
Погода в Феодосии (Крым, Россия) (107 км)
Погода в Славянске-на-Кубани (Краснодарский край, Россия) (110 км)

Пояснения к столбцам:

Ветер - указаны скорость ветра в м/с - средняя за 10 мин, порывы в срок и между сроками (в фигурных скобках) и направление, откуда дует ветер: С - северный, СВ - северо-восточный, В - восточный, ЮВ - юго-восточный, Ю - южный, ЮЗ - юго-западный, З - западный, СЗ - северо-западный.
Видимость - горизонтальная дальность видимости в метрах или километрах. При видимости от 1 до 10 км при отсутствии осадков обычно наблюдается дымка, при ухудшении видимости до 1 км и менее - туман. В сухую погоду видимость может ухудшаться дымом, пылью или мглою.
Явления - указаны атмосферные явления, наблюдавшиеся в срок или в последний час перед сроком; фигурными скобками обозначены явления, наблюдавшиеся между сроками (за 1-3 часа до срока); квадратными скобками обозначены град или гололедные отложения с указанием их диаметра в мм.
Облачность - указаны через наклонную черту общая и нижняя облачность в баллах и высота нижней границы облаков в метрах; квадратными скобками обозначены формы облаков: Ci - перистые, Cs - перисто-слоистые, Cc - перисто-кучевые, Ac - высококучевые, As - высокослоистые, Sc - слоисто-кучевые, Ns - слоисто-дождевые, Cu - кучевые, Cb - кучево-дождевые. Подробнее классификацию облаков см. в Атласе облаков (PDF).
T - Температура воздуха - температура, измеренная на высоте 2 м над землей.
Td - Температура точки росы - температура, при понижении до которой содержащийся в воздухе водяной пар достигнет насыщения.
f - Относительная влажность воздуха - влажноcть воздуха, измеренная на высоте 2 м над землей.
Te - Эффективная температура - температура, которую ощущает одетый по сезону человек в тени. Характеристика душности погоды. При расчете учитывается влияние влажности воздуха и скорости ветра на теплоощущения человека.
Tes - Эффективная температура на солнце - температура, которую ощущает человек, с поправкой на солнечный нагрев. Характеристика знойности погоды. Зависит от высоты солнца над горизонтом, облачности и скорости ветра. Ночью, в пасмурную погоду, а также при ветре 12 м/с и более поправка равна нулю.
P - Атмосферное давление - приведенное к уровню моря атмосферное давление.
Po - Атмосферное давление - измеренное на уровне метеостанции атмосферное давление.
Tmin - Минимальная температура - минимум температуры воздуха на высоте 2 м над землей.
Tmax - Максимальная температура - максимум температуры воздуха на высоте 2 м над землей.
R - Количество осадков - Количество выпавших осадков за период времени, мм. При наведении курсора мыши на число - период времени, за который выпало указанное количество осадков.
R24 - Количество осадков - Количество выпавших осадков за 24 часа, мм.
S - Снежный покров - Высота снежного покрова, см. При наведении курсора мыши на число - состояние снежного покрова и степень покрытия местности в баллах.